Regional Weather Roundup
Issued by NWS

Home | Current Version | Previous Version | Graphics & Text | Print | Product List | Glossary On
Versions: 1 2 3 4 5 6 7 8 9 10 11 12 13 14 15 16 17 18 19 20 21 22 23 24 25 26 27 28 29 30 31 32 33 34 35 36 37 38 39 40 41 42 43 44 45 46 47 48 49 50
126
ASUS43 KLOT 291004
RWRIL

ILLINOIS REGIONAL WEATHER ROUNDUP
NATIONAL WEATHER SERVICE CHICAGO/ROMEOVILLE IL
500 AM CDT MON MAY 29 2017

NOTE: "FAIR" INDICATES FEW OR NO CLOUDS BELOW 12,000 FEET WITH NO
SIGNIFICANT WEATHER AND/OR OBSTRUCTIONS TO VISIBILITY.

* THESE STATIONS ARE NOT UNDER NWS QUALITY CONTROL. THEY ALSO MAY NOT
  REPORT WEATHER SUCH AS PRECIPITATION OR FOG.

ILZ001-002-007-009-015-016-024-291100-
NORTHWEST ILLINOIS

CITY           SKY/WX    TMP DP  RH WIND       PRES   REMARKS
MOLINE         PTCLDY    57  48  72 W3        29.84R
STERLING*      CLOUDY    58  52  80 W6        29.83R
SAVANNA*       MOCLDY    61  47  60 SW5       29.82R
$$

ILZ003-004-008-010-011-017-018-291100-
NORTH CENTRAL ILLINOIS

CITY           SKY/WX    TMP DP  RH WIND       PRES   REMARKS
ROCKFORD       CLOUDY    56  51  84 SW6       29.81R
FREEPORT*      MOCLDY    57  47  69 SW7       29.82S
ROCHELLE*      CLOUDY    57  53  85 W10       29.81S
DE KALB*       MOCLDY    59  50  73 W12       29.80S
$$

ILZ005-006-012>014-019>023-291100-
NORTHEAST ILLINOIS

CITY           SKY/WX    TMP DP  RH WIND       PRES   REMARKS
CHICAGO-OHARE  PTCLDY    59  50  72 W8        29.76S
CHICAGO-MIDWAY PTCLDY    61  51  70 SW8       29.77F
AURORA         CLEAR     58  51  78 SW7       29.79S
LANSING*       CLEAR     57  52  82 SW5       29.79R
JOLIET*        CLEAR     60  53  75 W3        29.79S
WAUKEGAN       CLEAR     56  48  74 SW6       29.75S
DUPAGE AIRPORT CLEAR     57  53  86 W7        29.78S
WHEELING       CLEAR     57  51  80 S3        29.78R
MORRIS*        CLEAR     56  51  84 CALM      29.79R
ROMEOVILLE*    CLEAR     58  54  86 W8        29.79S
NORTHERLY ISL    N/A     64  49  57 SW7         N/A
$$

LMZ740>746-291100-
SOUTHERN LAKE MICHIGAN

STATION/POSITION SKY/WX   TEMP    WIND        PRES    VSBY  WAVE
                          AIR SEA DIR/SP/G                  HT/PER
                          (F)     (DEG/KT/KT) (MB)    (MI)  (FT/S)
SOUTHERN BUOY              52 47  250/  8/ 10 1007.0          0
WILMETTE HARBOR            58 55  230/  8/ 10   N/A           0
HARRISON CRIB              68     230/ 12/ 13   N/A
BURNHAM HARBOR             63     280/  3/  9   N/A
CALUMET HARBOR             62     230/  4/  6 1007.9F
BURNS HARBOR               63     210/ 11/ 13 1008.8F
MICHIGAN CITY              63     200/ 11/ 12   N/A
MICHIGAN CITY 6N           59 57  210/  6/  6   N/A           1
ST. JOSEPH                 61 58  230/ 10/ 12 1008.4R         1
$$

ILZ025>027-034>036-040-047-049-050-058-095>099-291100-
WEST-CENTRAL ILLINOIS

CITY           SKY/WX    TMP DP  RH WIND       PRES   REMARKS
QUINCY         CLEAR     56  52  86 SW7       29.89R
GALESBURG*     PTCLDY    56  48  72 SW3       29.85S
MACOMB*        CLEAR     56  51  83 W8        29.88S
JACKSONVILLE*  CLEAR     60  54  79 SW8       29.88R
PITTSFIELD*    CLEAR     62  53  72 W5        29.91R
$$

ILZ028>032-037-038-041>044-048-051>054-059>061-291100-
CENTRAL ILLINOIS

CITY           SKY/WX    TMP DP  RH WIND       PRES   REMARKS
PONTIAC        CLEAR     59  53  81 CALM      29.83R
BLOOMINGTON    CLEAR     59  52  77 SW9       29.86R
DECATUR        CLEAR     63  55  75 W7        29.87R
PEORIA         PTCLDY    58  50  75 W3        29.85R
LACON*         CLEAR     57  49  76 CALM      29.83R
LINCOLN*       CLEAR     64  53  69 CALM      29.86R
SPRINGFIELD    CLEAR     62  56  80 SW6       29.88R
TAYLORVILLE    NOT AVBL
$$

ILZ033-039-045-046-055>057-062-063-291100-
EAST-CENTRAL ILLINOIS

CITY           SKY/WX    TMP DP  RH WIND       PRES   REMARKS
CHAMPAIGN      CLEAR     60  54  80 SW9       29.86R
RANTOUL*       CLEAR     64  56  75 W8        29.85R
MATTOON        CLEAR     63  56  78 SW6       29.87R
$$

ILZ079-100>102-291100-
SOUTHWEST ILLINOIS

CITY           SKY/WX    TMP DP  RH WIND       PRES   REMARKS
BELLEVILLE     CLEAR     58  55  88 S5        29.92R
CAHOKIA*       CLEAR     64  55  72 SW5       29.91R
SPARTA*        CLOUDY    62  55  80 SW3       29.94S
$$

ILZ064>066-069>071-074>076-080>082-084>086-088>090-092>094-291100-
SOUTH-CENTRAL ILLINOIS

CITY           SKY/WX    TMP DP  RH WIND       PRES   REMARKS
CARBONDALE     CLOUDY    60  58  92 SW6       29.94R
CAIRO*         CLOUDY    63  63 100 CALM      29.95S
EFFINGHAM*     CLEAR     59  58  95 S5        29.92R
MARION         PTCLDY    61  61 100 CALM      29.95R
MT. VERNON       N/A     55  55 100 CALM      29.93R FOG
CENTRALIA*     CLOUDY    62  58  87 SW6       29.92R
SALEM*         CLOUDY    62  57  82 SW7       29.92R
$$

ILZ067-068-072-073-078-083-087-091-291100-
SOUTHEAST ILLINOIS

CITY           SKY/WX    TMP DP  RH WIND       PRES   REMARKS
LAWRENCEVILLE  CLOUDY    61  57  87 W5        29.90R
FLORA*         PTCLDY    64  58  80 W7        29.91S
FAIRFIELD*     PTCLDY    58  57  99 CALM      29.91R
HARRISBURG*    CLOUDY    60  60 100 CALM      29.95R
ROBINSON*      CLEAR     63  56  78 SW10      29.90R
CARMI*         CLOUDY    59  59  99 CALM      29.93R
$$

ABBREVIATIONS USED IN REMARKS
   TC - TEMPERATURE IN CELSIUS
  WCI - WIND CHILL INDEX
   HX - HEAT INDEX
  VSB - VISIBILITY
$$





USA.gov is the U.S. government's official web portal to all federal, state and local government web resources and services.